Weather History for KSTC - September, 2014

Change the Weather History Date:

Friday, September 19, 2014

  Actual Average Record
Temperature  
Mean Temperature 64 °F 57 °F  
Max Temperature 70 °F 69 °F 94 °F (1984)
Min Temperature 57 °F 45 °F 28 °F (1991)
Degree Days  
Heating Degree Days 1 9  
Month to date heating degree days 112 109  
Since 1 July heating degree days 121 167  
Cooling Degree Days 0 1  
Month to date cooling degree days 20 29  
Year to date cooling degree days 574 458  
Growing Degree Days 14 (Base 50)    
Moisture  
Dew Point 58 °F    
Average Humidity 82    
Maximum Humidity 97    
Minimum Humidity 67    
Precipitation  
Precipitation T in 0.11 in 1.63 in (1907)
Month to date precipitation 3.73 2.33  
Year to date precipitation 33.10 21.91  
Snow  
Snow 0.00 in 0.00 in 0.00 in ()
Month to date snowfall 0.0 0.0  
Since 1 July snowfall 0.0 0.0  
Since 1 September snowfall 0.0 0.0  
Snow Depth 0.00 in    
Sea Level Pressure  
Sea Level Pressure 29.75 in    
Wind  
Wind Speed 9 mph (South)    
Max Wind Speed 26 mph    
Max Gust Speed 30 mph    
Visibility 5 miles    
Events Fog , Rain    
T = Trace of Precipitation, MM = Missing Value Source: NWS Daily Summary

Daily Weather History Graph

Daily Weather History Graph

Search for Another Location

Airport or City:

Trip Planner

Search our weather history database for the weather conditions in past years. The results will help you decide how hot, cold, wet, or windy it might be!

Date:

Astronomy

Sep. 19, 2014 Rise Set
Actual Time 6:59 AM CDT 7:19 PM CDT
Civil Twilight 6:29 AM CDT 7:49 PM CDT
Nautical Twilight 5:54 AM CDT 8:24 PM CDT
Astronomical Twilight 5:18 AM CDT 8:59 PM CDT
Moon 2:35 AM CDT (9/19) 4:57 PM CDT (9/19)
Length of Visible Light 13h 19m
Length of Day
12h 19m
Waning Crescent, 18% of the Moon is Illuminated
Sep 19
Waning Crescent
Sep 24
New
Oct 1
First Quarter
Oct 8
Full
Oct 15
Last Quarter

Hourly Weather History & Observations

Time (CDT) Temp. Dew Point Humidity Pressure Visibility Wind Dir Wind Speed Gust Speed Precip Events Conditions
12:53 AM 63.0 °F 52.0 °F 67% 29.95 in 10.0 mi South 12.7 mph - N/A   Clear
1:53 AM 63.0 °F 52.0 °F 67% 29.95 in 10.0 mi South 12.7 mph - N/A   Mostly Cloudy
2:53 AM 62.1 °F 52.0 °F 70% 29.93 in 10.0 mi SSE 11.5 mph - N/A   Mostly Cloudy
3:53 AM 61.0 °F 52.0 °F 72% 29.92 in 10.0 mi South 10.4 mph - N/A   Clear
4:53 AM 62.1 °F 53.1 °F 72% 29.91 in 10.0 mi South 13.8 mph - N/A   Partly Cloudy
5:53 AM 62.1 °F 53.1 °F 72% 29.90 in 10.0 mi South 13.8 mph 23.0 mph N/A   Clear
6:53 AM 62.1 °F 54.0 °F 75% 29.89 in 10.0 mi South 11.5 mph - N/A   Overcast
7:14 AM 62.1 °F 54.0 °F 75% 29.87 in 10.0 mi South 13.8 mph - N/A   Overcast
7:53 AM 62.6 °F 53.6 °F 72% 29.86 in 10.0 mi South 11.5 mph - N/A   Overcast
8:53 AM 62.6 °F 55.4 °F 77% 29.82 in 9.0 mi South 15.0 mph - N/A   Overcast
9:02 AM 63.0 °F 55.0 °F 75% 29.82 in 9.0 mi South 12.7 mph - N/A   Overcast
9:53 AM 63.0 °F 55.9 °F 78% 29.80 in 8.0 mi South 19.6 mph - 0.00 in   Overcast
10:53 AM 64.0 °F 57.0 °F 78% 29.76 in 8.0 mi South 18.4 mph 26.5 mph N/A   Overcast
11:53 AM 64.9 °F 57.9 °F 78% 29.76 in 6.0 mi South 16.1 mph - N/A   Haze
12:41 PM 64.0 °F 60.1 °F 87% 29.73 in 3.0 mi South 12.7 mph - N/A   Overcast
12:50 PM 64.4 °F 60.8 °F 88% 29.72 in 2.0 mi South 11.5 mph - N/A   Overcast
12:53 PM 64.0 °F 60.1 °F 87% 29.75 in 2.0 mi South 13.8 mph - N/A   Overcast
1:32 PM 64.0 °F 60.1 °F 87% 29.73 in 1.5 mi South 10.4 mph - N/A   Overcast
1:53 PM 64.0 °F 61.0 °F 90% 29.74 in 1.2 mi South 10.4 mph - 0.00 in Rain Light Rain
2:37 PM 64.9 °F 61.0 °F 87% 29.69 in 2.5 mi SSE 11.5 mph - 0.00 in   Overcast
2:49 PM 64.4 °F 60.8 °F 88% 29.69 in 4.0 mi South 9.2 mph - 0.00 in   Overcast
2:53 PM 64.9 °F 62.1 °F 90% 29.72 in 4.0 mi South 11.5 mph - 0.00 in   Overcast
3:16 PM 66.9 °F 62.1 °F 84% 29.68 in 5.0 mi South 9.2 mph - N/A   Haze
3:53 PM 68.0 °F 62.1 °F 81% 29.70 in 7.0 mi South 9.2 mph - N/A   Overcast
4:01 PM 68.0 °F 62.1 °F 81% 29.68 in 7.0 mi South 9.2 mph - N/A   Overcast
4:53 PM 70.0 °F 62.1 °F 76% 29.69 in 8.0 mi South 8.1 mph - N/A   Overcast
5:53 PM 69.1 °F 64.0 °F 84% 29.68 in 7.0 mi South 3.5 mph - 0.00 in Rain Light Rain
6:53 PM 69.1 °F 64.0 °F 84% 29.67 in 6.0 mi Calm Calm - 0.00 in   Haze
7:53 PM 66.0 °F 62.1 °F 87% 29.67 in 5.0 mi Calm Calm - N/A   Clear
8:25 PM 64.0 °F 62.1 °F 93% 29.66 in 1.5 mi SSE 3.5 mph - N/A   Clear
8:36 PM 62.1 °F 60.1 °F 93% 29.66 in 0.5 mi SSE 4.6 mph - N/A Fog Fog
8:48 PM 62.6 °F 60.8 °F 94% 29.66 in 1.5 mi Calm Calm - N/A   Clear
8:53 PM 63.0 °F 61.0 °F 93% 29.68 in 0.8 mi Calm Calm - N/A   Clear
9:04 PM 63.0 °F 61.0 °F 93% 29.66 in 0.2 mi Calm Calm - N/A Fog Fog
9:29 PM 62.1 °F 60.1 °F 93% 29.67 in 0.2 mi Calm Calm - N/A Fog Fog
9:53 PM 61.0 °F 59.0 °F 93% 29.68 in 0.2 mi Calm Calm - N/A Fog Fog
10:53 PM 60.1 °F 59.0 °F 96% 29.66 in 0.2 mi Calm Calm - N/A Fog Fog
11:38 PM 57.0 °F 55.0 °F 93% 29.62 in 1.0 mi Calm Calm - N/A   Mist
11:49 PM 57.2 °F 55.4 °F 94% 29.63 in 0.2 mi Calm Calm - N/A Fog Fog
11:53 PM 59.0 °F 57.0 °F 93% 29.65 in 0.2 mi Calm Calm - N/A Fog Fog